Weather History for Morris, MN

Change the Weather History Date:

Saturday, August 9, 2014

  Actual Average Record
Temperature  
Mean Temperature 72 °F -  
Max Temperature 78 °F 76 °F 89 °F (2007)
Min Temperature 66 °F 53 °F 48 °F (1996)
Cooling Degree Days 7    
Growing Degree Days 22 (Base 50)    
Moisture  
Dew Point 64 °F    
Average Humidity 82    
Maximum Humidity 100    
Minimum Humidity 61    
Precipitation  
Precipitation 0.17 in - - ()
Sea Level Pressure  
Sea Level Pressure 30.04 in    
Wind  
Wind Speed 7 mph (ESE)    
Max Wind Speed 13 mph    
Max Gust Speed 17 mph    
Visibility 9 miles    
Events Rain    
Averages and records for this station are not official NWS values.
T = Trace of Precipitation, MM = Missing Value Source: NWS Daily Summary

Daily Weather History Graph

Daily Weather History Graph

Search for Another Location

Airport:

Trip Planner

Search our weather history database for the weather conditions in past years. The results will help you decide how hot, cold, wet, or windy it might be!

Date:

Astronomy

Aug. 09, 2014 Rise Set
Actual Time 6:17 AM CDT 8:40 PM CDT
Civil Twilight 5:43 AM CDT 9:13 PM CDT
Nautical Twilight 5:02 AM CDT 9:54 PM CDT
Astronomical Twilight 4:15 AM CDT 10:41 PM CDT
Moon 7:41 PM CDT (8/9) 4:58 AM CDT (8/9)
Length of Visible Light 15h 29m
Length of Day
14h 23m
Waxing Gibbous, 98% of the Moon is Illuminated
Aug 9
Waxing Gibbous
Aug 10
Full
Aug 17
Last Quarter
Aug 25
New
Sep 2
First Quarter

Hourly Weather History & Observations

Time (CDT) Temp. Dew Point Humidity Pressure Visibility Wind Dir Wind Speed Gust Speed Precip Events Conditions
12:07 AM 66.2 °F 62.6 °F 88% 30.05 in 10.0 mi East 5.8 mph - N/A   Overcast
12:28 AM 66.2 °F 62.6 °F 88% 30.05 in 10.0 mi ESE 4.6 mph - N/A   Overcast
12:48 AM 66.2 °F 62.6 °F 88% 30.05 in 10.0 mi ESE 4.6 mph - N/A   Mostly Cloudy
1:08 AM 66.2 °F 62.6 °F 88% 30.04 in 10.0 mi ESE 6.9 mph - N/A   Mostly Cloudy
1:28 AM 68.0 °F 62.6 °F 83% 30.04 in 10.0 mi ESE 6.9 mph - N/A   Mostly Cloudy
1:48 AM 69.8 °F 62.6 °F 78% 30.04 in 10.0 mi ESE 8.1 mph - N/A   Scattered Clouds
2:08 AM 68.0 °F 62.6 °F 83% 30.04 in 10.0 mi East 6.9 mph - N/A   Mostly Cloudy
2:28 AM 68.0 °F 62.6 °F 83% 30.04 in 10.0 mi East 5.8 mph - N/A   Mostly Cloudy
2:48 AM 68.0 °F 62.6 °F 83% 30.04 in 10.0 mi ESE 6.9 mph - N/A   Scattered Clouds
3:07 AM 68.0 °F 62.6 °F 83% 30.04 in 10.0 mi ESE 6.9 mph - N/A   Scattered Clouds
3:28 AM 68.0 °F 62.6 °F 83% 30.04 in 10.0 mi SE 5.8 mph - N/A   Scattered Clouds
3:48 AM 68.0 °F 60.8 °F 78% 30.04 in 10.0 mi ESE 6.9 mph - N/A   Scattered Clouds
4:07 AM 68.0 °F 60.8 °F 78% 30.04 in 10.0 mi ESE 8.1 mph - N/A   Scattered Clouds
4:28 AM 68.0 °F 60.8 °F 78% 30.05 in 10.0 mi SE 6.9 mph - N/A   Mostly Cloudy
4:48 AM 68.0 °F 60.8 °F 78% 30.04 in 10.0 mi SE 6.9 mph - N/A   Mostly Cloudy
5:08 AM 68.0 °F 60.8 °F 78% 30.04 in 10.0 mi ESE 8.1 mph - N/A   Mostly Cloudy
5:28 AM 68.0 °F 60.8 °F 78% 30.05 in 10.0 mi SE 6.9 mph - N/A   Mostly Cloudy
5:48 AM 68.0 °F 60.8 °F 78% 30.05 in 10.0 mi ESE 8.1 mph - N/A   Mostly Cloudy
6:07 AM 68.0 °F 60.8 °F 78% 30.05 in 10.0 mi SE 8.1 mph - N/A   Overcast
6:28 AM 66.2 °F 60.8 °F 83% 30.05 in 10.0 mi SE 6.9 mph - N/A   Scattered Clouds
6:48 AM 66.2 °F 60.8 °F 83% 30.06 in 10.0 mi SSE 6.9 mph - N/A   Scattered Clouds
7:08 AM 66.2 °F 60.8 °F 83% 30.06 in 10.0 mi SE 8.1 mph - N/A   Clear
7:28 AM 66.2 °F 62.6 °F 88% 30.06 in 10.0 mi SE 6.9 mph - N/A   Scattered Clouds
7:48 AM 68.0 °F 62.6 °F 83% 30.07 in 10.0 mi SE 6.9 mph - N/A   Scattered Clouds
8:08 AM 69.8 °F 62.6 °F 78% 30.07 in 10.0 mi SE 8.1 mph - N/A   Scattered Clouds
8:28 AM 66.2 °F 62.6 °F 88% 30.07 in 7.0 mi SE 5.8 mph - N/A   Scattered Clouds
8:48 AM 68.0 °F 64.4 °F 88% 30.07 in 10.0 mi SE 5.8 mph - N/A   Scattered Clouds
9:07 AM 69.8 °F 64.4 °F 83% 30.07 in 10.0 mi SE 6.9 mph - N/A   Scattered Clouds
9:28 AM 71.6 °F 62.6 °F 73% 30.07 in 10.0 mi SE 10.4 mph - N/A   Scattered Clouds
9:47 AM 71.6 °F 62.6 °F 73% 30.07 in 10.0 mi SE 9.2 mph - N/A   Clear
10:08 AM 71.6 °F 62.6 °F 73% 30.07 in 10.0 mi SE 9.2 mph - N/A   Clear
10:27 AM 71.6 °F 62.6 °F 73% 30.07 in 10.0 mi SE 8.1 mph - N/A   Clear
10:48 AM 73.4 °F 62.6 °F 69% 30.07 in 10.0 mi ESE 8.1 mph - N/A   Clear
11:08 AM 73.4 °F 62.6 °F 69% 30.07 in 10.0 mi ESE 6.9 mph - N/A   Clear
11:27 AM 73.4 °F 64.4 °F 73% 30.07 in 10.0 mi ESE 9.2 mph - N/A   Clear
12:08 PM 78.8 °F 64.4 °F 61% 30.06 in 10.0 mi ESE 11.5 mph - N/A   Clear
12:28 PM 75.2 °F 64.4 °F 69% 30.06 in 10.0 mi ESE 10.4 mph 16.1 mph N/A   Clear
12:48 PM 73.4 °F 66.2 °F 78% 30.06 in 7.0 mi SE 8.1 mph - N/A Rain Light Rain
12:50 PM 73.4 °F 66.2 °F 78% 30.06 in 10.0 mi SE 8.1 mph - N/A Rain Light Rain
1:21 PM 71.6 °F 64.4 °F 78% 30.06 in 10.0 mi ESE 9.2 mph - N/A   Scattered Clouds
1:41 PM 71.6 °F 66.2 °F 83% 30.06 in 7.0 mi ESE 5.8 mph - N/A   Clear
2:01 PM 75.2 °F 66.2 °F 73% 30.05 in 10.0 mi ESE 9.2 mph - N/A   Clear
2:21 PM 75.2 °F 66.2 °F 73% 30.05 in 10.0 mi ESE 10.4 mph - N/A   Clear
2:41 PM 77.0 °F 66.2 °F 69% 30.04 in 10.0 mi ESE 12.7 mph - N/A   Clear
3:01 PM 75.2 °F 66.2 °F 73% 30.04 in 10.0 mi ESE 10.4 mph 17.3 mph N/A   Clear
3:21 PM 75.2 °F 66.2 °F 73% 30.04 in 10.0 mi ESE 11.5 mph - N/A   Clear
3:41 PM 75.2 °F 66.2 °F 73% 30.03 in 10.0 mi ESE 9.2 mph 17.3 mph N/A   Clear
4:08 PM 73.4 °F 66.2 °F 78% 30.04 in 10.0 mi SE 8.1 mph - N/A   Clear
4:23 PM 73.4 °F 66.2 °F 78% 30.04 in 7.0 mi ESE 8.1 mph - N/A   Clear
4:50 PM 71.6 °F 66.2 °F 83% 30.04 in 7.0 mi ESE 6.9 mph - N/A   Clear
5:29 PM 71.6 °F 66.2 °F 83% 30.03 in 7.0 mi ESE 6.9 mph - N/A   Clear
5:53 PM 71.6 °F 66.2 °F 83% 30.02 in 7.0 mi ESE 5.8 mph - N/A   Clear
6:01 PM 71.6 °F 66.2 °F 83% 30.03 in 7.0 mi ESE 5.8 mph - N/A   Scattered Clouds
6:21 PM 69.8 °F 66.2 °F 88% 30.03 in 10.0 mi ESE 6.9 mph - N/A   Scattered Clouds
6:51 PM 69.8 °F 66.2 °F 88% 30.03 in 5.0 mi SE 4.6 mph - N/A   Scattered Clouds
7:07 PM 69.8 °F 66.2 °F 88% 30.03 in 5.0 mi SE 5.8 mph - N/A   Clear
7:22 PM 68.0 °F 66.2 °F 94% 30.03 in 5.0 mi SE 5.8 mph - N/A   Clear
7:50 PM 68.0 °F 66.2 °F 94% 30.02 in 5.0 mi ESE 6.9 mph - N/A   Clear
8:05 PM 68.0 °F 66.2 °F 94% 30.03 in 5.0 mi SE 5.8 mph - N/A   Clear
8:21 PM 68.0 °F 66.2 °F 94% 30.03 in 4.0 mi ESE 5.8 mph - N/A   Scattered Clouds
8:41 PM 68.0 °F 66.2 °F 94% 30.03 in 3.0 mi ESE 6.9 mph - N/A   Mostly Cloudy
9:01 PM 66.2 °F 66.2 °F 100% 30.01 in 5.0 mi ESE 9.2 mph - N/A   Scattered Clouds
9:41 PM 66.2 °F 66.2 °F 100% 30.01 in 4.0 mi ESE 10.4 mph - N/A   Scattered Clouds
10:09 PM 66.2 °F 64.4 °F 94% 30.02 in 5.0 mi ESE 6.9 mph - N/A   Clear
11:05 PM 66.2 °F 64.4 °F 94% 30.02 in 5.0 mi East 5.8 mph - 0.02 in Rain Rain
11:08 PM 66.2 °F 64.4 °F 94% 30.02 in 5.0 mi East 6.9 mph - 0.03 in Rain Rain
11:28 PM 66.2 °F 64.4 °F 94% 30.02 in 5.0 mi ESE 8.1 mph - 0.09 in Rain Rain
11:48 PM 66.2 °F 64.4 °F 94% 30.01 in 5.0 mi East 11.5 mph - 0.17 in Rain Rain